User: anonymous   Login
Location: Unspecified
(0.0000°N, 0.0000°E)
Time: 17:33:34
(UTC+02:00)
Language:

Cosmos 1242 Rocket - Orbit

View from above orbital plane
View from above orbital plane
View from above satellite
View from above satellite

Ground track
Ground track

The orbit data is extracted from the following two-line orbital elements,

1 12155U 81008B   17177.93010428 +.00000870 +00000-0 +27961-4 0  9995
2 12155 081.1630 054.5569 0029044 314.2162 045.6689 15.30729770962115
Epoch (UTC): 26 June 2017 22:19:21
Eccentricity: 0.0029044
inclination: 81.1630°
perigee height: 454 km
apogee height: 493 km
right ascension of ascending node: 54.5569°
argument of perigee: 314.2162°
revolutions per day: 15.30729770
mean anomaly at epoch: 45.6689°
orbit number at epoch: 96211

The dashed part of the orbit path shows where the satellite is in the earth's shadow,  

DLR